Location: Binningen
(47.7924°N, 8.7261°E)
Time: 11:30:06
(UTC+00:00)

Cosmos 1733 Rocket - Pass Details

Date: 02 October 2021
Orbit: 604 x 627 km, 82.5° (Epoch: 22 October)

Event Time Altitude Azimuth Distance (km) Brightness Sun altitude
Rises 17:36:38 0° 217° (SW) 2,848 7.0 -6.6°
Reaches altitude 10° 17:39:06 10° 230° (SW) 1,951 6.4 -7.0°
Maximum altitude 17:42:48 27° 289° (WNW) 1,167 5.5 -7.6°
Drops below altitude 10° 17:46:32 10° 348° (NNW) 1,971 5.8 -8.3°
Sets 17:49:03 0° 1° (N) 2,883 6.5 -8.7°
